Previsão horária em Plodovyy

Hoje, 5 Março, Sexta-feira

Tempo Temperatura Precipitação Vento Pressão Humidade
00:00 -2°C° 0 mm 5 m/s 731 mmHg 92%
01:00 -4°C° 0 mm 5 m/s 731 mmHg 92%
02:00 -4°C° 0 mm 5 m/s 730 mmHg 93%
03:00 -4°C° 0 mm 5 m/s 730 mmHg 94%
04:00 -4°C° 0.1 mm 5 m/s 730 mmHg 95%
05:00 -4°C° 0.1 mm 5 m/s 731 mmHg 95%
06:00 -4°C° 0.1 mm 6 m/s 731 mmHg 96%
07:00 -4°C° 0.2 mm 6 m/s 731 mmHg 94%
08:00 -4°C° 0.2 mm 5 m/s 732 mmHg 93%
09:00 -4°C° 0.2 mm 5 m/s 732 mmHg 92%
10:00 -5°C° 0 mm 5 m/s 733 mmHg 91%
11:00 -5°C° 0 mm 5 m/s 733 mmHg 89%
12:00 -4°C° 0 mm 4 m/s 734 mmHg 88%
13:00 -4°C° 0 mm 4 m/s 735 mmHg 87%
14:00 -4°C° 0 mm 4 m/s 736 mmHg 86%
15:00 -4°C° 0 mm 4 m/s 736 mmHg 86%
16:00 -7°C° 0 mm 4 m/s 737 mmHg 87%
17:00 -7°C° 0 mm 3 m/s 737 mmHg 89%
18:00 -9°C° 0 mm 3 m/s 738 mmHg 91%
19:00 -10°C° 0 mm 3 m/s 738 mmHg 91%
20:00 -9°C° 0 mm 2 m/s 739 mmHg 91%
21:00 -10°C° 0 mm 2 m/s 740 mmHg 91%
22:00 -12°C° 0 mm 2 m/s 740 mmHg 91%
23:00 -12°C° 0 mm 2 m/s 740 mmHg 92%

Amanhã, 6 Março, Sábado

Tempo Temperatura Precipitação Vento Pressão Humidade
00:00 -13°C° 0 mm 2 m/s 740 mmHg 92%
01:00 -13°C° 0 mm 2 m/s 740 mmHg 92%
02:00 -11°C° 0 mm 1 m/s 741 mmHg 93%
03:00 -12°C° 0 mm 1 m/s 741 mmHg 93%
04:00 -12°C° 0 mm 1 m/s 741 mmHg 93%
05:00 -12°C° 0 mm 1 m/s 741 mmHg 93%
06:00 -12°C° 0 mm 1 m/s 741 mmHg 93%
07:00 -11°C° 0 mm 1 m/s 741 mmHg 93%
08:00 -10°C° 0 mm 1 m/s 741 mmHg 93%
09:00 -9°C° 0 mm 1 m/s 741 mmHg 92%
10:00 -8°C° 0 mm 1 m/s 741 mmHg 91%
11:00 -7°C° 0 mm 1 m/s 741 mmHg 90%
12:00 -7°C° 0 mm 2 m/s 740 mmHg 88%
13:00 -7°C° 0 mm 2 m/s 740 mmHg 88%
14:00 -7°C° 0 mm 2 m/s 740 mmHg 87%
15:00 -6°C° 0 mm 2 m/s 740 mmHg 87%
16:00 -7°C° 0 mm 2 m/s 739 mmHg 88%
17:00 -8°C° 0 mm 2 m/s 739 mmHg 89%
18:00 -9°C° 0 mm 2 m/s 739 mmHg 90%
19:00 -10°C° 0 mm 2 m/s 739 mmHg 90%
20:00 -12°C° 0 mm 2 m/s 739 mmHg 89%
21:00 -13°C° 0 mm 2 m/s 739 mmHg 89%
22:00 -12°C° 0 mm 1 m/s 739 mmHg 88%
23:00 -12°C° 0 mm 1 m/s 739 mmHg 87%

Depois de amanhã, 7 Março, Domingo

Tempo Temperatura Precipitação Vento Pressão Humidade
00:00 -12°C° 0 mm 1 m/s 739 mmHg 86%
01:00 -15°C° 0 mm 2 m/s 739 mmHg 88%
02:00 -15°C° 0 mm 2 m/s 740 mmHg 90%
03:00 -16°C° 0 mm 3 m/s 740 mmHg 92%
04:00 -16°C° 0 mm 3 m/s 740 mmHg 94%
05:00 -16°C° 0 mm 3 m/s 740 mmHg 95%
06:00 -16°C° 0 mm 3 m/s 740 mmHg 96%
07:00 -16°C° 0 mm 4 m/s 740 mmHg 95%
08:00 -16°C° 0 mm 4 m/s 740 mmHg 94%
09:00 -15°C° 0 mm 4 m/s 740 mmHg 93%
10:00 -14°C° 0 mm 5 m/s 740 mmHg 91%
11:00 -12°C° 0 mm 6 m/s 739 mmHg 89%
12:00 -12°C° 0 mm 7 m/s 739 mmHg 87%
13:00 -11°C° 0 mm 7 m/s 738 mmHg 85%
14:00 -11°C° 0 mm 7 m/s 737 mmHg 84%
15:00 -10°C° 0 mm 8 m/s 737 mmHg 82%
16:00 -10°C° 0 mm 8 m/s 736 mmHg 82%
17:00 -10°C° 0 mm 8 m/s 735 mmHg 82%
18:00 -10°C° 0 mm 8 m/s 734 mmHg 82%
19:00 -9°C° 0.3 mm 9 m/s 733 mmHg 85%
20:00 -9°C° 0.3 mm 10 m/s 733 mmHg 89%
21:00 -9°C° 0.3 mm 11 m/s 732 mmHg 92%
22:00 -9°C° 0.4 mm 10 m/s 732 mmHg 92%
23:00 -9°C° 0.4 mm 9 m/s 731 mmHg 91%

8 Março, Segunda-feira

Tempo Temperatura Precipitação Vento Pressão Humidade
00:00 -8°C° 0.4 mm 8 m/s 731 mmHg 90%
01:00 -10°C° 0.1 mm 6 m/s 731 mmHg 87%
02:00 -12°C° 0.1 mm 5 m/s 732 mmHg 85%
03:00 -13°C° 0.1 mm 3 m/s 732 mmHg 82%
04:00 -13°C° 0 mm 3 m/s 732 mmHg 83%
05:00 -13°C° 0 mm 3 m/s 732 mmHg 83%
06:00 -12°C° 0 mm 3 m/s 732 mmHg 83%
07:00 -11°C° 0.1 mm 4 m/s 731 mmHg 87%
08:00 -10°C° 0.1 mm 4 m/s 731 mmHg 90%
09:00 -10°C° 0.1 mm 5 m/s 731 mmHg 93%
10:00 -9°C° 0.1 mm 6 m/s 731 mmHg 88%
11:00 -8°C° 0.1 mm 6 m/s 731 mmHg 83%
12:00 -7°C° 0.1 mm 7 m/s 731 mmHg 78%
13:00 -7°C° 0 mm 7 m/s 731 mmHg 79%
14:00 -7°C° 0 mm 8 m/s 731 mmHg 80%
15:00 -7°C° 0 mm 8 m/s 732 mmHg 81%
16:00 -9°C° 0 mm 7 m/s 732 mmHg 80%
17:00 -11°C° 0 mm 6 m/s 732 mmHg 78%
18:00 -12°C° 0 mm 5 m/s 733 mmHg 76%
19:00 -13°C° 0 mm 5 m/s 734 mmHg 80%
20:00 -14°C° 0 mm 5 m/s 734 mmHg 84%
21:00 -15°C° 0 mm 5 m/s 735 mmHg 87%
22:00 -16°C° 0 mm 4 m/s 736 mmHg 89%
23:00 -17°C° 0 mm 4 m/s 736 mmHg 90%

9 Março, Terça-feira

Tempo Temperatura Precipitação Vento Pressão Humidade
00:00 -17°C° 0 mm 4 m/s 737 mmHg 92%
01:00 -18°C° 0 mm 4 m/s 737 mmHg 93%
02:00 -18°C° 0 mm 3 m/s 737 mmHg 94%
03:00 -18°C° 0 mm 3 m/s 738 mmHg 95%
04:00 -19°C° 0 mm 3 m/s 738 mmHg 96%
05:00 -19°C° 0 mm 3 m/s 738 mmHg 96%
06:00 -19°C° 0 mm 3 m/s 739 mmHg 96%
07:00 -18°C° 0 mm 3 m/s 739 mmHg 96%
08:00 -17°C° 0 mm 3 m/s 739 mmHg 95%
09:00 -16°C° 0 mm 3 m/s 740 mmHg 94%
10:00 -14°C° 0 mm 2 m/s 740 mmHg 92%
11:00 -13°C° 0 mm 2 m/s 740 mmHg 90%
12:00 -12°C° 0 mm 2 m/s 740 mmHg 88%
13:00 -12°C° 0 mm 2 m/s 740 mmHg 88%
14:00 -12°C° 0 mm 2 m/s 740 mmHg 88%
15:00 -10°C° 0 mm 2 m/s 740 mmHg 88%
16:00 -13°C° 0 mm 2 m/s 740 mmHg 90%
17:00 -14°C° 0 mm 2 m/s 740 mmHg 92%
18:00 -15°C° 0 mm 2 m/s 740 mmHg 94%
19:00 -16°C° 0 mm 2 m/s 740 mmHg 94%
20:00 -17°C° 0 mm 2 m/s 741 mmHg 95%
21:00 -17°C° 0 mm 2 m/s 741 mmHg 95%
22:00 -18°C° 0 mm 2 m/s 741 mmHg 96%
23:00 -19°C° 0 mm 3 m/s 741 mmHg 96%

10 Março, Quarta-feira

Tempo Temperatura Precipitação Vento Pressão Humidade
00:00 -21°C° 0 mm 3 m/s 741 mmHg 96%
01:00 -22°C° 0 mm 3 m/s 742 mmHg 96%
02:00 -22°C° 0 mm 3 m/s 742 mmHg 96%
03:00 -23°C° 0 mm 3 m/s 742 mmHg 96%
04:00 -24°C° 0 mm 3 m/s 742 mmHg 96%
05:00 -25°C° 0 mm 4 m/s 743 mmHg 96%
06:00 -26°C° 0 mm 4 m/s 743 mmHg 96%
07:00 -25°C° 0 mm 4 m/s 743 mmHg 95%
08:00 -25°C° 0 mm 4 m/s 744 mmHg 94%
09:00 -25°C° 0 mm 4 m/s 744 mmHg 93%
10:00 -24°C° 0 mm 4 m/s 744 mmHg 92%
11:00 -23°C° 0 mm 4 m/s 745 mmHg 91%
12:00 -22°C° 0 mm 4 m/s 745 mmHg 89%
13:00 -20°C° 0 mm 4 m/s 745 mmHg 89%
14:00 -20°C° 0 mm 4 m/s 745 mmHg 88%
15:00 -19°C° 0 mm 4 m/s 745 mmHg 87%
16:00 -20°C° 0 mm 4 m/s 744 mmHg 89%
17:00 -22°C° 0 mm 4 m/s 744 mmHg 90%
18:00 -21°C° 0 mm 3 m/s 744 mmHg 92%
19:00 -20°C° 0 mm 4 m/s 744 mmHg 91%
20:00 -20°C° 0 mm 4 m/s 744 mmHg 91%
21:00 -19°C° 0 mm 4 m/s 744 mmHg 90%
22:00 -18°C° 0.1 mm 4 m/s 744 mmHg 91%
23:00 -18°C° 0.1 mm 5 m/s 743 mmHg 92%
Mostrar mais

Necessitamos do seu Consentimento

A Meteoprog e os seus Fornecedores de Serviços podem armazenar e aceder a dados pessoais como cookies, identificadores do dispositivo ou outras tecnologias semelhantes existentes no seu dispositivo e processar estes dados para personalizar conteúdos e anúncios, assim como funcionalidades nas redes sociais e análise de tráfego.

  • Armazenar e/ou aceder a informações no seu dispositivo

    Os cookies, identificadores do dispositivo ou outras informações podem ser armazenados ou acedidos no seu dispositivo, para os fins acima indicados.

  • Anúncios e conteúdos personalizados, medição de anúncios e conteúdos, dados sobre o público-alvo e desenvolvimento de produtos

    Os anúncios e os conteúdos podem ser personalizados com base num perfil. Podem ser adicionados dados adicionais para uma maior personalização dos anúncios e dos conteúdos. A eficácia dos anúncios e dos conteúdos pode ser medida. Podem ser obtidas informações sobre o público que visualizou os anúncios e os conteúdos. Estes dados podem ser usados para desenvolver ou melhorar sistemas, softwares ou a experiência do utilizador.

Ao clicar em "Eu concordo”, permitirá o uso de cookies, identificadores do dispositivo e web beacons mencionados ou outras tecnologias semelhantes. As configurações do navegador do seu dispositivo podem ser alteradas.

Para certos fins, podem ser invocados interesses legítimos ao invés de consentimento. Pode ler mais informação sobre este assunto na nossa Política de Privacidade e Cookies.